Simultaneous Nadir Overpasses (SNOs) Predictions

Prediction of SNOs between GOES-17 and METOP-B Satellite Orbit:

Table of predicted SNOs for the next 14.0 days since TLE Epoch: 7/8/2023
Index Date Time (GOES-17) GOES-17 Lat,Lon METOP-B Lat,Lon Distance(km) Time Diff (sec)
1 07/09/2023 04:30:30 0.01,-104.70 -0.03,-104.96 28.77 80
2 07/11/2023 16:28:40 0.01,-104.75 -0.06,-104.52 26.42 80
3 07/14/2023 04:24:18 -0.01,-104.72 0.11,-104.11 69.17 80
4 07/15/2023 16:43:08 0.00,-104.76 0.90,-108.67 446.63 80
5 07/16/2023 16:25:08 0.00,-104.76 -0.22,-103.67 123.16 80
6 07/18/2023 04:44:07 -0.00,-104.73 -0.77,-108.28 402.95 80
7 07/19/2023 04:20:46 -0.00,-104.74 0.35,-103.28 166.67 80
8 07/20/2023 16:39:37 0.00,-104.77 0.65,-107.84 348.98 80
9 07/21/2023 16:21:35 0.00,-104.78 -0.40,-102.83 221.21 80
